Weather History for Oskaloosa, IA

Change the Weather History Date:

Saturday, May 10, 2014

  Actual Average (KOTM) Record (KOTM)
Temperature  
Mean Temperature 71 °F 59 °F  
Max Temperature 81 °F 70 °F 92 °F (2011)
Min Temperature 61 °F 49 °F 30 °F (1966)
Degree Days  
Heating Degree Days 0 7  
Month to date heating degree days 78  
Since 1 July heating degree days 6208  
Cooling Degree Days 6 1  
Month to date cooling degree days 10  
Year to date cooling degree days 21  
Growing Degree Days 21 (Base 50)    
Moisture  
Dew Point 44 °F    
Average Humidity 38    
Maximum Humidity 70    
Minimum Humidity 19    
Precipitation  
Precipitation 0.00 in 0.15 in 2.80 in (2001)
Month to date precipitation 1.44  
Year to date precipitation 9.26  
Sea Level Pressure  
Sea Level Pressure 29.84 in    
Wind  
Wind Speed 12 mph (South)    
Max Wind Speed 23 mph    
Max Gust Speed 29 mph    
Visibility 10 miles    
Events Rain    
T = Trace of Precipitation, MM = Missing Value Source: NWS Daily Summary

Daily Weather History Graph

Daily Weather History Graph

Search for Another Location

Airport:

Trip Planner

Search our weather history database for the weather conditions in past years. The results will help you decide how hot, cold, wet, or windy it might be!

Date:

Astronomy

May. 10, 2014 Rise Set
Actual Time 5:56 AM CDT 8:16 PM CDT
Civil Twilight 5:25 AM CDT 8:47 PM CDT
Nautical Twilight 4:47 AM CDT 9:25 PM CDT
Astronomical Twilight 4:05 AM CDT 10:08 PM CDT
Moon 4:10 PM CDT (5/10) 3:32 AM CDT (5/10)
Length of Visible Light 15h 21m
Length of Day
14h 19m
Waxing Gibbous, 82% of the Moon is Illuminated
May 10
Waxing Gibbous
May 14
Full
May 21
Last Quarter
May 28
New
Jun 5
First Quarter

Hourly Weather History & Observations

Time (CDT) Temp. Dew Point Humidity Pressure Visibility Wind Dir Wind Speed Gust Speed Precip Events Conditions
2:20 AM - - N/A% 29.88 in 10.0 mi SSW 5.8 mph - N/A   Clear
2:40 AM - - N/A% 29.88 in 10.0 mi SSW 4.6 mph - N/A   Clear
3:35 AM - - N/A% 29.87 in 10.0 mi South 3.5 mph - N/A   Clear
7:55 AM - - N/A% 29.93 in 10.0 mi South 4.6 mph - N/A   Overcast
8:55 AM 61.9 °F 46.6 °F 57% 29.92 in 10.0 mi South 9.2 mph - N/A   Scattered Clouds
9:15 AM 64.0 °F 46.9 °F 54% 29.91 in 10.0 mi SSE 9.2 mph - N/A   Scattered Clouds
9:35 AM 63.9 °F 46.4 °F 53% 29.91 in 10.0 mi South 9.2 mph - N/A   Scattered Clouds
9:55 AM 67.6 °F 46.9 °F 47% 29.91 in 10.0 mi South 12.7 mph - N/A   Clear
10:15 AM 68.4 °F 46.8 °F 46% 29.91 in 10.0 mi SSW 12.7 mph 17.3 mph N/A   Clear
10:35 AM 70.2 °F 45.3 °F 41% 29.91 in 10.0 mi SSW 12.7 mph - N/A   Clear
10:55 AM 72.3 °F 45.9 °F 39% 29.90 in 10.0 mi South 12.7 mph - N/A   Clear
11:15 AM 74.1 °F 43.9 °F 34% 29.89 in 10.0 mi South 12.7 mph - N/A   Clear
11:35 AM 75.4 °F 43.2 °F 32% 29.89 in 10.0 mi South 11.5 mph 19.6 mph N/A   Clear
11:55 AM 76.3 °F 43.0 °F 30% 29.89 in 10.0 mi South 12.7 mph 19.6 mph N/A   Clear
12:15 PM 77.2 °F 39.7 °F 26% 29.89 in 10.0 mi South 18.4 mph - N/A   Clear
12:35 PM 76.6 °F 39.7 °F 27% 29.88 in 10.0 mi SSE 12.7 mph 17.3 mph N/A   Scattered Clouds
12:55 PM 77.2 °F 39.4 °F 26% 29.88 in 10.0 mi SSE 12.7 mph - N/A   Mostly Cloudy
1:15 PM 79.2 °F 37.6 °F 22% 29.86 in 10.0 mi South 16.1 mph 25.3 mph N/A   Scattered Clouds
1:35 PM 79.3 °F 38.1 °F 23% 29.85 in 10.0 mi South 15.0 mph 21.9 mph N/A   Clear
1:55 PM 79.5 °F 37.2 °F 22% 29.85 in 10.0 mi SSE 21.9 mph 27.6 mph N/A   Clear
2:15 PM 80.8 °F 35.2 °F 19% 29.84 in 10.0 mi SSE 17.3 mph 25.3 mph N/A   Clear
2:35 PM 81.7 °F 35.4 °F 19% 29.82 in 10.0 mi South 23.0 mph 28.8 mph N/A   Clear
2:55 PM 79.5 °F 35.4 °F 20% 29.82 in 10.0 mi South 19.6 mph 26.5 mph N/A   Clear
3:15 PM 81.0 °F 36.1 °F 20% 29.81 in 10.0 mi SSE 19.6 mph 28.8 mph N/A   Clear
3:35 PM 79.2 °F 36.5 °F 22% 29.80 in 10.0 mi SSE 17.3 mph 25.3 mph N/A   Scattered Clouds
3:55 PM 77.5 °F 36.1 °F 22% 29.81 in 10.0 mi SSE 16.1 mph 20.7 mph N/A   Mostly Cloudy
4:15 PM 79.7 °F 36.3 °F 21% 29.80 in 10.0 mi SSE 19.6 mph - N/A   Mostly Cloudy
4:35 PM 81.5 °F 36.9 °F 20% 29.78 in 10.0 mi SSE 19.6 mph 26.5 mph N/A   Scattered Clouds
4:55 PM 81.5 °F 38.5 °F 22% 29.77 in 10.0 mi SSE 20.7 mph 28.8 mph N/A   Clear
5:15 PM 79.2 °F 39.0 °F 24% 29.77 in 10.0 mi South 16.1 mph 27.6 mph N/A   Scattered Clouds
5:35 PM 77.2 °F 40.6 °F 27% 29.82 in 10.0 mi SSW 18.4 mph - N/A Rain Light Rain
5:55 PM 74.7 °F 45.7 °F 36% 29.79 in 10.0 mi South 9.2 mph 18.4 mph N/A Rain Light Rain
6:15 PM 76.1 °F 43.3 °F 31% 29.78 in 10.0 mi SSE 5.8 mph - N/A   Clear
6:35 PM 77.9 °F 44.1 °F 30% 29.77 in 10.0 mi SSE 10.4 mph - N/A   Scattered Clouds
6:55 PM 77.0 °F 44.2 °F 31% 29.78 in 10.0 mi SSE 15.0 mph 18.4 mph N/A   Scattered Clouds
7:15 PM 76.3 °F 44.2 °F 32% 29.77 in 10.0 mi SE 16.1 mph - N/A   Scattered Clouds
7:35 PM 75.6 °F 44.8 °F 33% 29.78 in 10.0 mi SE 13.8 mph - N/A   Mostly Cloudy
7:55 PM 74.5 °F 44.1 °F 34% 29.78 in 10.0 mi SE 15.0 mph - N/A   Overcast
8:15 PM 73.2 °F 44.6 °F 36% 29.79 in 10.0 mi SSE 12.7 mph - N/A   Overcast
8:35 PM 71.1 °F 48.9 °F 45% 29.78 in 10.0 mi South 12.7 mph - N/A   Scattered Clouds
8:55 PM 69.8 °F 51.3 °F 52% 29.78 in 10.0 mi South 15.0 mph - N/A   Clear
9:15 PM 67.8 °F 51.6 °F 56% 29.79 in 10.0 mi South 10.4 mph - N/A   Clear
9:35 PM 67.1 °F 51.8 °F 58% 29.80 in 10.0 mi South 13.8 mph - N/A   Clear
9:55 PM 66.2 °F 51.8 °F 60% 29.80 in 10.0 mi South 11.5 mph - N/A   Clear
10:15 PM 66.4 °F 52.2 °F 60% 29.81 in 10.0 mi South 18.4 mph 24.2 mph N/A   Clear
10:35 PM 64.6 °F 52.2 °F 64% 29.82 in 10.0 mi South 15.0 mph - N/A   Clear
10:55 PM 63.9 °F 52.3 °F 66% 29.82 in 10.0 mi South 12.7 mph - N/A   Scattered Clouds
11:15 PM 64.2 °F 53.2 °F 67% 29.82 in 10.0 mi SSE 16.1 mph - N/A   Clear
11:35 PM 63.7 °F 53.2 °F 69% 29.82 in 10.0 mi South 10.4 mph - N/A   Clear
11:55 PM 63.0 °F 53.1 °F 70% 29.82 in 10.0 mi South 12.7 mph - N/A   Clear